• In Portugal
  • List of Countries
  • For 7 days
  • Water Temperature
  • Satellite Maps
  • Weather Map
  • Weather Widgets
  • user-avatar
    Login

    Hourly Weather Córdoba

    Today, 20 February, Tuesday

    Time Temperature Precipitation Wind Pressure Humidity
    00:00 +21°C° 0 mm 2 mps 719 mmHg 58%
    01:00 +21°C° 0 mm 2 mps 719 mmHg 57%
    02:00 +21°C° 0 mm 2 mps 719 mmHg 56%
    03:00 +21°C° 0 mm 2 mps 719 mmHg 55%
    04:00 +21°C° 0 mm 2 mps 719 mmHg 54%
    05:00 +21°C° 0 mm 2 mps 719 mmHg 53%
    06:00 +23°C° 0 mm 2 mps 720 mmHg 51%
    07:00 +24°C° 0 mm 1 mps 721 mmHg 50%
    08:00 +26°C° 0 mm 1 mps 721 mmHg 48%
    09:00 +27°C° 0 mm 2 mps 721 mmHg 45%
    10:00 +28°C° 0 mm 2 mps 722 mmHg 41%
    11:00 +30°C° 0 mm 3 mps 722 mmHg 38%
    12:00 +31°C° 0.3 mm 3 mps 722 mmHg 36%
    13:00 +33°C° 0.3 mm 3 mps 722 mmHg 33%
    14:00 +34°C° 0.3 mm 3 mps 721 mmHg 31%
    15:00 +33°C° 0.2 mm 3 mps 721 mmHg 32%
    16:00 +33°C° 0.2 mm 3 mps 721 mmHg 33%
    17:00 +31°C° 0.2 mm 3 mps 721 mmHg 35%
    18:00 +29°C° 0.2 mm 3 mps 721 mmHg 39%
    19:00 +27°C° 0.2 mm 2 mps 722 mmHg 44%
    20:00 +25°C° 0.2 mm 2 mps 722 mmHg 48%
    21:00 +24°C° 0 mm 3 mps 723 mmHg 47%
    22:00 +21°C° 0 mm 3 mps 724 mmHg 45%
    23:00 +20°C° 0 mm 3 mps 724 mmHg 43%

    Tomorrow, 21 February, Wednesday

    Time Temperature Precipitation Wind Pressure Humidity
    00:00 +20°C° 0 mm 3 mps 724 mmHg 41%
    01:00 +19°C° 0 mm 3 mps 724 mmHg 40%
    02:00 +18°C° 0 mm 3 mps 724 mmHg 38%
    03:00 +18°C° 0 mm 3 mps 725 mmHg 38%
    04:00 +18°C° 0 mm 3 mps 725 mmHg 37%
    05:00 +18°C° 0 mm 2 mps 725 mmHg 37%
    06:00 +20°C° 0 mm 2 mps 725 mmHg 35%
    07:00 +23°C° 0 mm 2 mps 726 mmHg 32%
    08:00 +26°C° 0 mm 1 mps 727 mmHg 29%
    09:00 +28°C° 0 mm 2 mps 727 mmHg 26%
    10:00 +30°C° 0 mm 2 mps 727 mmHg 22%
    11:00 +32°C° 0 mm 2 mps 727 mmHg 19%
    12:00 +34°C° 0 mm 2 mps 726 mmHg 18%
    13:00 +35°C° 0 mm 3 mps 725 mmHg 17%
    14:00 +36°C° 0 mm 3 mps 725 mmHg 16%
    15:00 +36°C° 0 mm 3 mps 724 mmHg 16%
    16:00 +36°C° 0 mm 3 mps 723 mmHg 16%
    17:00 +36°C° 0 mm 3 mps 723 mmHg 17%
    18:00 +33°C° 0 mm 3 mps 723 mmHg 20%
    19:00 +29°C° 0 mm 3 mps 723 mmHg 24%
    20:00 +26°C° 0 mm 3 mps 723 mmHg 28%
    21:00 +25°C° 0 mm 3 mps 723 mmHg 29%
    22:00 +24°C° 0 mm 3 mps 723 mmHg 31%
    23:00 +22°C° 0 mm 3 mps 724 mmHg 32%

    Day after tomorrow, 22 February, Thursday

    Time Temperature Precipitation Wind Pressure Humidity
    00:00 +21°C° 0 mm 2 mps 724 mmHg 33%
    01:00 +21°C° 0 mm 2 mps 724 mmHg 34%
    02:00 +21°C° 0 mm 1 mps 724 mmHg 34%
    03:00 +21°C° 0 mm 1 mps 724 mmHg 35%
    04:00 +21°C° 0 mm 1 mps 724 mmHg 35%
    05:00 +20°C° 0 mm 1 mps 724 mmHg 36%
    06:00 +22°C° 0 mm 1 mps 724 mmHg 33%
    07:00 +24°C° 0 mm 2 mps 724 mmHg 31%
    08:00 +26°C° 0 mm 2 mps 725 mmHg 29%
    09:00 +29°C° 0 mm 3 mps 725 mmHg 25%
    10:00 +32°C° 0 mm 4 mps 725 mmHg 22%
    11:00 +35°C° 0 mm 5 mps 725 mmHg 19%
    12:00 +36°C° 0 mm 5 mps 725 mmHg 18%
    13:00 +38°C° 0 mm 6 mps 724 mmHg 16%
    14:00 +39°C° 0 mm 6 mps 723 mmHg 15%
    15:00 +39°C° 0 mm 6 mps 723 mmHg 16%
    16:00 +38°C° 0 mm 6 mps 722 mmHg 16%
    17:00 +38°C° 0 mm 6 mps 721 mmHg 17%
    18:00 +34°C° 0 mm 5 mps 721 mmHg 20%
    19:00 +30°C° 0 mm 5 mps 721 mmHg 23%
    20:00 +28°C° 0 mm 4 mps 721 mmHg 26%
    21:00 +27°C° 0 mm 4 mps 721 mmHg 28%
    22:00 +26°C° 0 mm 3 mps 722 mmHg 30%
    23:00 +24°C° 0 mm 3 mps 722 mmHg 32%

    23 February, Friday

    Time Temperature Precipitation Wind Pressure Humidity
    00:00 +24°C° 0 mm 3 mps 722 mmHg 33%
    01:00 +22°C° 0 mm 3 mps 721 mmHg 34%
    02:00 +22°C° 0 mm 3 mps 721 mmHg 35%
    03:00 +22°C° 0 mm 3 mps 721 mmHg 36%
    04:00 +22°C° 0 mm 3 mps 721 mmHg 38%
    05:00 +23°C° 0 mm 2 mps 721 mmHg 39%
    06:00 +23°C° 0.8 mm 2 mps 722 mmHg 46%
    07:00 +23°C° 0.8 mm 2 mps 722 mmHg 53%
    08:00 +23°C° 0.8 mm 2 mps 723 mmHg 60%
    09:00 +24°C° 0.9 mm 2 mps 723 mmHg 58%
    10:00 +25°C° 0.9 mm 2 mps 723 mmHg 55%
    11:00 +26°C° 0.9 mm 2 mps 724 mmHg 53%
    12:00 +28°C° 0.3 mm 2 mps 724 mmHg 48%
    13:00 +29°C° 0.3 mm 2 mps 723 mmHg 43%
    14:00 +30°C° 0.3 mm 2 mps 723 mmHg 38%
    15:00 +30°C° 0 mm 2 mps 723 mmHg 38%
    16:00 +29°C° 0 mm 2 mps 723 mmHg 38%
    17:00 +29°C° 0 mm 2 mps 723 mmHg 39%
    18:00 +27°C° 0 mm 2 mps 723 mmHg 42%
    19:00 +26°C° 0 mm 2 mps 723 mmHg 46%
    20:00 +25°C° 0 mm 3 mps 724 mmHg 50%
    21:00 +24°C° 0 mm 3 mps 724 mmHg 57%
    22:00 +21°C° 0 mm 4 mps 724 mmHg 65%
    23:00 +20°C° 0 mm 4 mps 725 mmHg 73%

    24 February, Saturday

    Time Temperature Precipitation Wind Pressure Humidity
    00:00 +20°C° 0 mm 4 mps 724 mmHg 77%
    01:00 +19°C° 0 mm 3 mps 724 mmHg 81%
    02:00 +18°C° 0 mm 3 mps 724 mmHg 85%
    03:00 +18°C° 0.1 mm 3 mps 724 mmHg 87%
    04:00 +17°C° 0.1 mm 3 mps 724 mmHg 89%
    05:00 +17°C° 0.1 mm 3 mps 724 mmHg 91%
    06:00 +18°C° 0 mm 3 mps 725 mmHg 86%
    07:00 +19°C° 0 mm 3 mps 725 mmHg 81%
    08:00 +20°C° 0 mm 4 mps 726 mmHg 75%
    09:00 +24°C° 0 mm 3 mps 726 mmHg 66%
    10:00 +26°C° 0 mm 3 mps 725 mmHg 57%
    11:00 +28°C° 0 mm 3 mps 725 mmHg 48%
    12:00 +29°C° 0.1 mm 3 mps 725 mmHg 46%
    13:00 +29°C° 0.1 mm 3 mps 724 mmHg 44%
    14:00 +30°C° 0.1 mm 3 mps 724 mmHg 43%
    15:00 +30°C° 0.1 mm 3 mps 723 mmHg 43%
    16:00 +30°C° 0.1 mm 3 mps 723 mmHg 42%
    17:00 +30°C° 0.1 mm 3 mps 723 mmHg 42%
    18:00 +28°C° 0 mm 2 mps 723 mmHg 48%
    19:00 +26°C° 0 mm 2 mps 723 mmHg 54%
    20:00 +24°C° 0 mm 1 mps 723 mmHg 60%
    21:00 +23°C° 0 mm 2 mps 724 mmHg 61%
    22:00 +21°C° 0 mm 2 mps 724 mmHg 61%
    23:00 +21°C° 0 mm 2 mps 724 mmHg 62%

    25 February, Sunday

    Time Temperature Precipitation Wind Pressure Humidity
    00:00 +20°C° 0 mm 2 mps 724 mmHg 61%
    01:00 +20°C° 0 mm 2 mps 724 mmHg 60%
    02:00 +19°C° 0 mm 2 mps 724 mmHg 59%
    03:00 +19°C° 0 mm 2 mps 724 mmHg 60%
    04:00 +19°C° 0 mm 2 mps 724 mmHg 61%
    05:00 +18°C° 0 mm 2 mps 724 mmHg 61%
    06:00 +20°C° 0 mm 2 mps 724 mmHg 57%
    07:00 +21°C° 0 mm 2 mps 725 mmHg 54%
    08:00 +24°C° 0 mm 2 mps 725 mmHg 50%
    09:00 +26°C° 0 mm 2 mps 725 mmHg 45%
    10:00 +28°C° 0 mm 2 mps 725 mmHg 41%
    11:00 +31°C° 0 mm 2 mps 725 mmHg 36%
    12:00 +31°C° 0 mm 2 mps 724 mmHg 35%
    13:00 +32°C° 0 mm 1 mps 724 mmHg 33%
    14:00 +33°C° 0 mm 1 mps 723 mmHg 32%
    15:00 +33°C° 0 mm 1 mps 723 mmHg 31%
    16:00 +33°C° 0 mm 1 mps 722 mmHg 31%
    17:00 +33°C° 0 mm 1 mps 722 mmHg 31%
    18:00 +31°C° 0 mm 1 mps 722 mmHg 36%
    19:00 +28°C° 0 mm 1 mps 722 mmHg 41%
    20:00 +26°C° 0 mm 1 mps 722 mmHg 46%
    21:00 +25°C° 0 mm 1 mps 722 mmHg 48%
    22:00 +25°C° 0 mm 1 mps 722 mmHg 49%
    23:00 +24°C° 0 mm 1 mps 723 mmHg 51%
    Show more